Latest Coastal Weather Observations for Cape Bruny AWS

IDT60701

Issued at 4:21 pm EDT Saturday 31 January 2015 (issued every 10 minutes, with the page automatically refreshed every 10 minutes)

About coastal observations | Map of coastal stations | Coastal observations for TAS | Marine services | Other Formats
Station Details ID: 094198 Name: CAPE BRUNY (CAPE BRUNY) Lat: -43.49 Lon: 147.14 Height: 59.7 m
Data from the previous 72 hours. | See also: Recent months at Cape Bruny AWS
Date/Time
EDT
Temp

°C
Wind Pressure Rain
since 9am
mm
Weather Cloud Vis
km
Sea
Height
m
Swell
Dir
 
Speed
knots
Gust
knots
hPa Trend Height
m
Period
s
Dir
31/04:00pm 13.1 SSW 11 21 1012.0 - 0.4 - - - - - - -
31/03:30pm 13.0 SSW 11 20 1012.0 - 0.2 - - - - - - -
31/03:00pm 12.9 S 14 22 1011.9 - 0.2 - - - - - - -
31/02:30pm 13.1 S 15 24 1011.9 - 0.2 - - - - - - -
31/02:00pm 13.0 S 14 25 1012.2 - 0.2 - - - - - - -
31/01:52pm 13.0 S 15 25 1012.3 - 0.2 - - - - - - -
31/01:30pm 13.1 S 13 21 1012.3 - 0.2 - - - - - - -
31/01:00pm 13.1 S 15 26 1012.4 - 0.0 - - - - - - -
31/12:59pm 13.1 S 15 26 1012.4 - 0.0 - - - - - - -
31/12:30pm 13.2 SSW 14 22 1012.3 - 0.0 - - - - - - -
31/12:00pm 13.1 S 15 29 1012.5 - 0.0 - - - - - - -
31/11:30am 13.1 S 15 27 1012.6 - 0.0 - - - - - - -
31/11:00am 13.0 S 16 27 1012.6 - 0.0 - - - - - - -
31/10:30am 13.0 S 17 30 1012.7 - 0.0 - - - - - - -
31/10:09am 13.1 S 16 27 1012.7 - 0.0 - - - - - - -
31/10:00am 13.1 S 17 25 1012.7 - 0.0 - - - - - - -
31/09:42am 13.2 S 18 28 1012.7 - 0.0 - - - - - - -
31/09:30am 13.0 S 18 25 1012.8 - 0.0 - - - - - - -
31/09:17am 13.0 S 17 27 1012.9 - 0.0 - - - - - - -
31/09:00am 13.0 S 17 25 1012.8 - 5.0 - - - - - - -
31/08:30am 12.8 S 18 25 1012.6 - 5.0 - - - - - - -
31/08:00am 12.8 S 18 24 1012.5 - 5.0 - - - - - - -
31/07:31am 12.9 S 17 27 1012.5 - 5.0 - - - - - - -
31/07:30am 12.9 S 17 26 1012.6 - 5.0 - - - - - - -
31/07:00am 12.9 S 18 28 1012.6 - 5.0 - - - - - - -
31/06:55am 12.8 S 18 28 1012.6 - 5.0 - - - - - - -
31/06:30am 12.6 S 18 27 1012.6 - 5.0 - - - - - - -
31/06:00am 12.6 S 18 31 1012.4 - 4.8 - - - - - - -
31/05:47am 12.8 S 17 29 1012.3 - 4.8 - - - - - - -
31/05:30am 12.8 S 17 25 1012.3 - 4.8 - - - - - - -
31/05:11am 12.8 S 17 27 1012.2 - 4.8 - - - - - - -
31/05:00am 12.7 S 18 27 1012.3 - 4.8 - - - - - - -
31/04:49am 12.7 S 16 26 1012.4 - 4.8 - - - - - - -
31/04:30am 12.5 S 16 25 1012.6 - 4.8 - - - - - - -
31/04:00am 12.5 S 16 26 1012.9 - 4.6 - - - - - - -
31/03:38am 12.4 S 15 25 1013.0 - 4.4 - - - - - - -
31/03:30am 12.5 S 15 24 1013.1 - 4.2 - - - - - - -
31/03:00am 12.3 S 14 22 1013.5 - 3.6 Recent precip. - - - - - -
31/02:48am 12.5 S 15 25 1013.5 - 3.6 - - - - - - -
31/02:30am 12.5 S 16 23 1013.6 - 3.4 - - - - - - -
31/02:00am 12.5 SSE 16 20 1013.9 - 3.0 - - - - - - -
31/01:33am 12.5 S 15 26 1014.1 - 2.2 - - - - - - -
31/01:30am 12.6 S 14 26 1014.1 - 2.0 - - - - - - -
31/01:00am 12.8 S 16 26 1014.5 - 1.6 - - - - - - -
31/12:49am 12.5 S 15 26 1014.3 - 1.6 - - - - - - -
31/12:30am 12.7 S 15 21 1014.5 - 1.6 - - - - - - -
31/12:00am 12.8 SSE 19 24 1014.8 - 1.4 - - - - - - -
 
Date/Time
EDT
Temp

°C
Wind Pressure Rain
since 9am
mm
Weather Cloud Vis
km
Sea
Height
m
Swell
Dir
 
Speed
knots
Gust
knots
hPa Trend Height
m
Period
s
Dir
30/11:30pm 13.6 S 17 23 1015.1 - 1.4 - - - - - - -
30/11:02pm 13.5 S 16 26 1015.3 - 1.4 - - - - - - -
30/11:00pm 13.4 S 16 24 1015.4 - 1.4 - - - - - - -
30/10:30pm 13.4 S 17 23 1015.8 - 1.4 - - - - - - -
30/10:00pm 13.2 SSE 17 23 1015.9 - 1.4 - - - - - - -
30/09:30pm 13.3 SSE 17 22 1016.1 - 1.4 - - - - - - -
30/09:00pm 13.2 SSE 17 23 1016.1 - 1.4 - - - - - - -
30/08:30pm 13.0 SSE 15 21 1016.2 - 1.4 - - - - - - -
30/08:00pm 13.2 S 15 21 1016.1 - 1.4 - - - - - - -
30/07:30pm 13.1 SSE 18 25 1016.2 - 1.4 - - - - - - -
30/07:14pm 13.2 SSE 16 26 1016.2 - 1.4 - - - - - - -
30/07:00pm 13.1 SSE 17 22 1016.3 - 1.4 - - - - - - -
30/06:38pm 13.2 SSE 15 25 1016.4 - 1.4 - - - - - - -
30/06:30pm 12.9 SSE 16 23 1016.5 - 1.4 - - - - - - -
30/06:00pm 13.6 S 14 19 1016.6 - 1.4 Recent precip. - - - - - -
30/05:30pm 13.3 S 14 23 1016.9 - 1.2 - - - - - - -
30/05:04pm 13.6 SSE 15 25 1017.1 - 1.2 - - - - - - -
30/05:00pm 14.1 SSE 15 18 1017.1 - 1.2 - - - - - - -
30/04:30pm 14.5 S 14 19 1017.4 - 1.2 - - - - - - -
30/04:00pm 13.6 S 16 25 1017.5 - 1.2 - - - - - - -
30/03:39pm 12.7 SSE 18 28 1017.7 - 1.2 - - - - - - -
30/03:30pm 12.5 SSE 22 31 1017.9 - 1.2 - - - - - - -
30/03:24pm 13.6 SSE 17 29 1017.8 - 1.2 - - - - - - -
30/03:00pm 13.8 S 14 21 1018.1 - 1.2 - - - - - - -
30/02:30pm 13.9 SSE 16 22 1018.3 - 1.2 - - - - - - -
30/02:00pm 14.5 SSE 16 21 1018.4 - 1.2 - - - - - - -
30/01:30pm 13.3 S 17 24 1018.5 - 1.2 - - - - - - -
30/01:00pm 13.8 S 17 23 1018.7 - 1.0 - - - - - - -
30/12:49pm 13.9 S 15 26 1018.8 - 1.0 - - - - - - -
30/12:30pm 13.7 S 14 22 1018.9 - 1.0 - - - - - - -
30/12:00pm 12.5 S 15 25 1019.1 - 1.0 Recent precip. - - - - - -
30/11:36am 12.5 S 15 25 1019.6 - 1.0 - - - - - - -
30/11:30am 12.7 SSE 12 22 1019.6 - 0.6 - - - - - - -
30/11:00am 12.8 S 17 28 1019.8 - 0.4 - - - - - - -
30/10:58am 12.9 S 17 28 1019.8 - 0.4 - - - - - - -
30/10:30am 12.5 SSE 12 19 1020.0 - 0.4 - - - - - - -
30/10:16am 13.1 SSE 15 25 1019.9 - 0.2 - - - - - - -
30/10:00am 13.4 S 14 22 1020.3 - 0.0 - - - - - - -
30/09:45am 13.1 S 19 29 1020.3 - 0.0 - - - - - - -
30/09:30am 13.1 SSE 15 22 1020.3 - 0.0 - - - - - - -
30/09:16am 12.9 S 18 28 1020.4 - 0.0 - - - - - - -
30/09:00am 12.5 SSE 18 25 1020.5 - 1.6 Recent precip. - - - - - -
30/08:37am 12.6 SSE 16 27 1020.5 - 1.6 - - - - - - -
30/08:30am 12.6 S 15 23 1020.6 - 1.6 - - - - - - -
30/08:09am 12.3 S 16 28 1020.4 - 1.4 - - - - - - -
30/08:08am 12.4 S 15 24 1020.4 - 1.4 - - - - - - -
30/08:00am 12.1 SSE 12 22 1020.4 - 1.4 - - - - - - -
30/07:48am 12.3 S 18 28 1020.2 - 1.4 - - - - - - -
30/07:30am 12.0 S 15 23 1020.4 - 1.4 - - - - - - -
30/07:23am 12.2 S 16 26 1020.4 - 1.4 - - - - - - -
30/07:00am 11.7 SSE 19 25 1020.3 - 1.4 - - - - - - -
30/06:31am 12.5 SSE 20 30 1020.4 - 1.2 - - - - - - -
30/06:30am 12.6 SSE 21 30 1020.4 - 1.2 - - - - - - -
30/06:00am 12.3 SSE 20 27 1020.5 - 1.2 Recent precip. - - - - - -
30/05:45am 11.8 S 15 26 1020.5 - 1.2 - - - - - - -
30/05:30am 12.2 S 12 20 1020.6 - 1.2 - - - - - - -
30/05:00am 11.6 SSE 19 27 1020.6 - 1.0 - - - - - - -
30/04:30am 12.1 S 19 30 1020.7 - 0.8 - - - - - - -
30/04:22am 12.5 SSE 17 27 1020.7 - 0.8 - - - - - - -
30/04:00am 12.4 S 15 22 1020.9 - 0.8 - - - - - - -
30/03:32am 12.6 S 15 26 1021.2 - 0.8 - - - - - - -
30/03:30am 12.6 S 15 24 1021.2 - 0.8 - - - - - - -
30/03:00am 12.1 S 13 20 1021.5 - 0.8 Recent precip. - - - - - -
30/02:30am 11.8 S 13 19 1022.0 - 0.6 - - - - - - -
30/02:00am 12.0 SSE 10 18 1022.4 - 0.4 - - - - - - -
30/01:30am 11.5 SE 11 17 1022.7 - 0.4 - - - - - - -
30/01:00am 11.8 ESE 15 19 1022.9 - 0.4 - - - - - - -
30/12:30am 12.8 SE 15 23 1023.2 - 0.2 - - - - - - -
30/12:00am 12.8 SE 17 24 1023.4 - 0.2 - - - - - - -
 
Date/Time
EDT
Temp

°C
Wind Pressure Rain
since 9am
mm
Weather Cloud Vis
km
Sea
Height
m
Swell
Dir
 
Speed
knots
Gust
knots
hPa Trend Height
m
Period
s
Dir
29/11:32pm 12.7 ESE 17 27 1023.5 - 0.2 - - - - - - -
29/11:30pm 12.7 SE 17 22 1023.5 - 0.2 - - - - - - -
29/11:00pm 12.9 SE 15 30 1023.6 - 0.2 - - - - - - -
29/10:30pm 12.9 SE 17 28 1023.9 - 0.2 - - - - - - -
29/10:00pm 13.1 SE 16 30 1024.1 - 0.2 - - - - - - -
29/09:38pm 12.8 SE 15 31 1024.0 - 0.2 - - - - - - -
29/09:30pm 12.6 SE 16 22 1024.1 - 0.2 - - - - - - -
29/09:00pm 11.6 S 12 18 1024.1 - 0.2 - - - - - - -
29/08:41pm 11.4 S 15 25 1024.3 - 0.2 - - - - - - -
29/08:30pm 12.3 S 12 19 1024.3 - 0.2 - - - - - - -
29/08:00pm 11.9 SE 12 23 1024.3 - 0.2 - - - - - - -
29/07:45pm 11.9 SSE 14 26 1024.3 - 0.2 - - - - - - -
29/07:30pm 12.5 SSE 11 18 1024.3 - 0.2 - - - - - - -
29/07:00pm 11.4 S 13 20 1024.3 - 0.0 - - - - - - -
29/06:55pm 11.8 S 15 26 1024.3 - 0.0 - - - - - - -
29/06:30pm 12.6 S 11 19 1024.3 - 0.0 - - - - - - -
29/06:00pm 12.8 SSE 10 17 1024.3 - 0.0 - - - - - - -
29/05:30pm 13.1 S 15 20 1024.5 - 0.0 - - - - - - -
29/05:00pm 13.4 S 16 21 1024.7 - 0.0 - - - - - - -
29/04:30pm 13.7 S 12 18 1024.8 - 0.0 - - - - - - -
29/04:00pm 13.5 SSE 10 17 1024.9 - 0.0 - - - - - - -
29/03:30pm 14.6 S 9 16 1025.0 - 0.0 - - - - - - -
29/03:00pm 14.5 S 11 19 1025.3 - 0.0 - - - - - - -
29/02:30pm 13.9 S 12 17 1025.4 - 0.0 - - - - - - -
29/02:00pm 14.2 S 13 22 1025.3 - 0.0 - - - - - - -
29/01:30pm 14.4 S 13 19 1025.5 - 0.0 - - - - - - -
29/01:00pm 14.8 S 12 17 1025.7 - 0.0 - - - - - - -
29/12:30pm 13.4 SE 11 18 1026.0 - 0.0 - - - - - - -
29/12:00pm 13.5 SE 11 18 1026.1 - 0.0 - - - - - - -
29/11:30am 13.6 SSE 11 21 1026.1 - 0.0 - - - - - - -
29/11:00am 13.5 SE 13 19 1026.2 - 0.0 - - - - - - -
29/10:30am 13.2 SSE 11 21 1026.2 - 0.0 - - - - - - -
29/10:00am 12.3 ESE 19 23 1026.0 - 0.0 - - - - - - -
29/09:30am 12.9 SE 11 19 1026.2 - 0.0 - - - - - - -
29/09:00am 12.7 S 11 19 1026.2 - 0.2 - - - - - - -
29/08:30am 12.5 SSE 12 20 1026.0 - 0.2 - - - - - - -
29/08:00am 12.5 SSE 12 19 1025.9 - 0.2 - - - - - - -
29/07:30am 12.7 S 14 21 1025.7 - 0.2 - - - - - - -
29/07:00am 12.5 S 13 19 1025.6 - 0.2 - - - - - - -
29/06:30am 12.2 S 13 19 1025.4 - 0.2 - - - - - - -
29/06:00am 11.5 S 12 16 1025.5 - 0.2 - - - - - - -
29/05:30am 11.8 S 11 18 1025.1 - 0.2 - - - - - - -
29/05:00am 11.4 SE 16 24 1025.1 - 0.2 - - - - - - -
29/04:30am 12.0 S 15 19 1025.0 - 0.2 - - - - - - -
29/04:00am 12.5 SSE 11 18 1025.0 - 0.2 - - - - - - -
29/03:30am 12.6 S 16 25 1025.1 - 0.2 - - - - - - -
29/03:22am 12.6 S 15 25 1025.2 - 0.2 - - - - - - -
29/03:00am 12.3 SSE 12 17 1025.3 - 0.2 - - - - - - -
29/02:30am 12.0 SE 14 22 1025.4 - 0.2 - - - - - - -
29/02:00am 12.3 SE 16 24 1025.5 - 0.2 - - - - - - -
29/01:30am 11.6 SE 13 21 1025.8 - 0.2 - - - - - - -
29/01:00am 12.6 SSE 12 20 1025.8 - 0.2 - - - - - - -
29/12:30am 12.7 S 11 20 1025.8 - 0.2 - - - - - - -
29/12:00am 12.6 S 11 21 1026.0 - 0.2 - - - - - - -
 
Date/Time
EDT
Temp

°C
Wind Pressure Rain
since 9am
mm
Weather Cloud Vis
km
Sea
Height
m
Swell
Dir
 
Speed
knots
Gust
knots
hPa Trend Height
m
Period
s
Dir
28/11:30pm 12.6 SSE 11 18 1026.1 - 0.2 - - - - - - -
28/11:00pm 12.4 SE 14 25 1026.2 - 0.2 - - - - - - -
28/10:30pm 12.4 SSE 9 17 1026.5 - 0.2 - - - - - - -
28/10:00pm 12.5 SSE 9 14 1026.6 - 0.2 - - - - - - -
28/09:30pm 12.5 SE 13 19 1026.4 - 0.2 - - - - - - -
28/09:00pm 12.6 SE 12 19 1026.4 - 0.2 - - - - - - -
28/08:30pm 12.7 SE 10 15 1026.1 - 0.2 - - - - - - -
28/08:00pm 12.8 SSE 8 14 1026.0 - 0.2 - - - - - - -
28/07:30pm 12.9 S 11 17 1025.8 - 0.2 - - - - - - -
28/07:00pm 13.1 SSE 10 15 1025.7 - 0.2 - - - - - - -
28/06:30pm 14.0 SSE 9 14 1025.7 - 0.2 - - - - - - -
28/06:00pm 14.1 S 10 16 1025.7 - 0.2 - - - - - - -
28/05:30pm 14.2 SSE 9 14 1025.7 - 0.2 - - - - - - -
28/05:00pm 15.2 S 12 17 1025.6 - 0.2 - - - - - - -
28/04:30pm 14.0 S 12 16 1025.4 - 0.2 - - - - - - -

Other Formats:

Comma delimited format used in spreadsheet applications
http://www.bom.gov.au/fwo/IDT60701/IDT60701.95967.axf

JavaScript Object Notation format (JSON) in row-major order
http://www.bom.gov.au/fwo/IDT60701/IDT60701.95967.json